CDT,Max TemperatureF,Mean TemperatureF,Min TemperatureF,Max Dew PointF,MeanDew PointF,Min DewpointF,Max Humidity, Mean Humidity, Min Humidity, Max Sea Level PressureIn, Mean Sea Level PressureIn, Min Sea Level PressureIn, Max VisibilityMiles, Mean VisibilityMiles, Min VisibilityMiles, Max Wind SpeedMPH, Mean Wind SpeedMPH, Max Gust SpeedMPH,PrecipitationIn, CloudCover, Events, WindDirDegrees
2014-3-1,32,20,9,27,17,8,99,86,73,30.36,30.21,29.99,10,9,1,18,10,21,0.00,8,Snow,345
2014-3-2,9,2,-4,8,-4,-12,93,73,58,30.47,30.42,30.34,10,9,1,16,12,21,0.00,3,Snow,327
2014-3-3,13,0,-12,4,-5,-17,82,70,57,30.52,30.45,30.32,10,10,10,9,5,,0.00,0,,309
2014-3-4,28,18,8,16,11,4,87,71,53,30.34,30.20,30.13,10,10,10,10,4,,0.00,3,,133
2014-3-5,26,24,21,22,19,15,96,84,72,30.38,30.30,30.18,10,7,1,17,11,26,0.00,7,Snow,67
2014-3-6,32,20,7,21,17,6,100,83,63,30.36,30.21,30.04,10,9,5,10,5,,0.00,1,,91
2014-3-7,45,32,19,35,29,20,100,82,58,30.03,29.95,29.87,10,8,3,10,6,,0.00,0,,177
2014-3-8,33,30,27,33,32,25,100,99,91,30.28,30.17,30.01,10,4,1,14,6,,0.00,7,Rain-Snow,354
2014-3-9,43,32,20,36,30,21,100,86,72,30.28,30.09,29.83,10,10,4,17,7,21,0.00,0,,207
2014-3-10,53,44,35,46,38,33,100,81,64,29.84,29.75,29.69,10,10,7,14,8,17,0.00,1,,213
2014-3-11,51,42,33,45,37,33,100,92,74,29.75,29.66,29.59,10,9,4,25,6,32,0.02,2,Rain-Snow-Thunderstorm,44
2014-3-12,33,29,25,34,28,22,100,86,72,30.13,29.95,29.74,10,8,1,18,13,24,0.16,6,Rain-Snow,320
2014-3-13,49,34,20,41,30,20,100,85,70,30.12,30.01,29.83,10,10,10,17,6,23,0.00,2,,173
2014-3-14,55,44,34,40,35,31,92,72,54,29.95,29.78,29.67,10,10,10,30,12,36,0.00,1,,237
2014-3-15,49,38,27,36,31,27,100,79,52,30.15,30.05,29.95,10,10,7,18,7,26,0.00,1,,31
2014-3-16,32,22,12,30,19,10,99,83,65,30.31,30.21,30.15,10,8,0,28,18,36,0.00,4,Snow,36
2014-3-17,40,25,11,27,18,10,98,75,50,30.12,29.89,29.73,10,10,10,10,6,16,0.00,0,,125
2014-3-18,53,42,32,42,35,26,95,79,60,29.77,29.68,29.56,10,10,7,18,9,31,0.00,2,Rain,131
2014-3-19,44,37,29,44,35,28,100,91,79,30.07,29.82,29.54,10,8,2,26,12,33,0.01,7,Rain,258
2014-3-20,51,39,27,36,32,27,98,75,49,30.07,30.01,29.94,10,10,10,13,5,16,0.00,3,,43
2014-3-21,58,46,33,44,36,31,91,72,53,30.00,29.86,29.73,10,10,10,21,10,28,0.00,2,Rain,126
2014-3-22,40,33,25,32,25,17,89,73,47,30.38,30.22,30.01,10,10,10,18,14,24,0.00,5,,311
2014-3-23,32,25,18,18,13,10,80,61,40,30.48,30.42,30.36,10,10,10,16,10,20,0.00,1,,329
2014-3-24,38,28,20,30,18,12,100,67,46,30.39,30.28,30.12,10,10,2,10,4,20,0.00,6,Snow,306
2014-3-25,29,22,13,31,17,13,100,78,53,30.27,30.20,30.10,10,10,0,22,11,32,0.00,3,Snow,293
2014-3-26,44,28,13,27,19,13,100,66,37,30.30,30.14,29.91,10,10,10,17,6,25,0.00,3,,151
2014-3-27,52,44,35,50,40,30,100,91,69,29.91,29.63,29.42,10,8,3,25,13,40,0.21,8,Rain-Thunderstorm,159
2014-3-28,41,38,34,41,35,34,100,92,82,30.17,29.97,29.54,10,9,4,30,14,40,0.06,8,Rain,304
2014-3-29,50,40,30,35,33,29,100,81,48,30.24,30.20,30.14,10,8,4,13,5,17,0.00,5,,352
2014-3-30,61,46,30,41,35,29,96,70,41,30.25,30.12,29.97,10,10,7,16,7,24,0.00,0,,149
2014-3-31,66,55,44,48,41,37,82,63,42,29.98,29.81,29.64,10,10,10,28,14,40,0.00,1,Rain-Thunderstorm,156